Location: 22
(39.7117°N, 89.5929°W)
Time: 11:52:07
(UTC-06:00)

Vanguard 1 - Visible Passes

Search period start: 07 February 2023 00:00
Search period end: 17 February 2023 00:00
Orbit: 650 x 3831 km, 34.2° (Epoch: 06 February)

Date Brightness Start Highest point End Pass type
(mag) Time Alt. Az. Time Alt. Az. Time Alt. Az.
07 Feb 10.8 04:15:08 48° S 04:15:44 49° SSE 04:25:30 10° E visible
07 Feb 11.6 06:28:45 10° W 06:36:41 64° S 06:51:46 10° ESE visible
08 Feb 10.6 04:34:41 47° SSW 04:36:12 56° SSE 04:46:35 10° E visible
09 Feb 12.6 02:41:32 14° E 02:41:32 14° E 02:42:51 10° E visible
09 Feb 10.7 04:54:13 40° SW 04:56:44 60° S 05:07:40 10° E visible
10 Feb 12.2 03:01:04 20° ESE 03:01:04 20° ESE 03:03:58 10° E visible
10 Feb 10.9 05:13:45 30° WSW 05:17:19 61° S 05:28:44 10° ESE visible
11 Feb 11.7 03:20:35 28° ESE 03:20:35 28° ESE 03:24:58 10° E visible
11 Feb 11.0 05:33:16 22° WSW 05:37:57 59° S 05:49:44 10° ESE visible
12 Feb 11.2 03:40:07 38° ESE 03:40:07 38° ESE 03:45:55 10° E visible
12 Feb 11.3 05:52:48 15° W 05:58:36 54° S 06:10:38 10° ESE visible
13 Feb 10.7 03:59:37 49° SE 03:59:37 49° SE 04:06:51 10° E visible
13 Feb 11.5 06:12:32 10° W 06:19:16 48° SSW 06:31:23 10° SE visible
14 Feb 10.3 04:19:09 55° S 04:19:09 55° S 04:27:45 10° ESE visible
15 Feb 10.3 04:38:41 48° SW 04:39:42 52° S 04:48:36 10° ESE visible
16 Feb 12.5 02:45:32 13° E 02:45:32 13° E 02:46:12 10° E visible
16 Feb 10.6 04:58:13 35° SW 05:00:17 47° S 05:09:20 10° ESE visible
